www.pogodaiklimat.ru
ПОГОДА в Велавике
Время
и дата
15:56 21.05
16:56 21.05
17:56 21.05
18:56 21.05
19:56 21.05
20:56 21.05
21:56 21.05
22:56 21.05
23:56 21.05
00:56 22.05
01:56 22.05
02:56 22.05
03:56 22.05
04:56 22.05
05:56 22.05
06:56 22.05
07:56 22.05
08:56 22.05
09:56 22.05
10:56 22.05
11:56 22.05
12:56 22.05
13:56 22.05
14:56 22.05
15:56 22.05
16:56 22.05
17:56 22.05
18:56 22.05
19:56 22.05
20:56 22.05
21:56 22.05
22:56 22.05
23:56 22.05
00:56 23.05
01:56 23.05
02:56 23.05
03:56 23.05
04:56 23.05
05:56 23.05
06:56 23.05
07:56 23.05
08:56 23.05
09:56 23.05
10:56 23.05
11:56 23.05
12:56 23.05
13:56 23.05
14:56 23.05
Ветер
(напр.,м/с)
Видим. Явления Облачность Т
(С)
Тd
(С)
f
(%)
Тe
(С)
Тes
(С)
Комфортность P
(гПа)
Po
(гПа)
Тmin
(С)
Tmax
(С)
R
(мм)
R24
(мм)
S
(см)
СВ 3 16 км ясно +12.8 -1.1 38 +11 +15 1021.3 1020.6
В 2 16 км ясно +11.7 -0.6 43 +10 +16 1020.8 1019.9
СВ 2 16 км ясно +12.8 0.0 41 +11 +15 1020.4 1019.6
В 1 16 км ясно +12.2 +0.6 45 +11 +15 1020.0 1019.2
С 1 16 км ясно +12.2 +1.7 49 +11 +14 1019.6 1018.9
С 2 16 км ясно +11.1 +0.6 48 +9 +10 1019.4 1018.6 +10.6 +13.3
СВ 2 16 км ясно +8.9 -0.6 51 +6 +6 1019.3 1018.6
СВ 2 16 км ясно +7.8 -0.6 55 +4 +5 1019.1 1018.2
СВ 2 16 км ясно +5.6 -1.1 62 +2 +2 1019.2 1018.6
В 1 16 км ясно +3.9 -1.1 70 +1 +1 1019.1 1018.2
ЮВ 1 16 км ясно +4.4 -1.1 67 +2 +2 1019.0 1018.2
В 1 16 км ясно +3.3 -1.7 70 +1 +1 1018.6 1017.9 +2.8 +11.1
штиль 0 11 км ясно +1.7 -2.2 75 +1 +1 1018.5 1017.9
штиль 0 16 км ясно +1.1 -2.2 79 0 0 1018.3 1017.5
штиль 0 16 км ясно +1.7 -1.7 78 +1 +1 1018.3 1017.5
штиль 0 16 км ясно +3.3 -1.7 70 +3 +3 1018.2 1017.5
штиль 0 16 км ясно +4.4 -1.1 67 +4 +6 1018.3 1017.5
штиль 0 16 км ясно +7.2 -0.6 58 +7 +11 1018.3 1017.5 +0.6 +7.2
штиль 0 16 км ясно +8.9 -0.6 51 +9 +15 1018.0 1017.2
СВ 2 16 км ясно +9.4 -1.1 48 +7 +11 1017.7 1016.9
В 2 16 км ясно +9.4 -0.6 50 +7 +11 1017.4 1016.5
СВ 2 16 км ясно +11.1 0.0 46 +9 +14 1017.2 1016.5
СВ 2 16 км ясно +11.7 +0.6 46 +10 +17 1016.9 1016.2
СВ 2 16 км ясно +12.2 +0.6 45 +11 +18 1016.6 1015.9 +6.7 +12.2
СВ 2 16 км ясно +13.3 +0.6 42 +12 +19 1016.2 1015.5
СВ 2 16 км ясно +12.8 +1.1 45 +11 +17 1015.8 1015.2
СВ 2 16 км ясно +12.8 +1.1 45 +11 +15 1015.5 1014.8
СВ 2 16 км ясно +11.1 +1.1 50 +9 +12 1015.5 1014.8
СВ 2 16 км ясно +10.0 +0.6 52 +7 +9 1015.2 1014.5
СВ 2 16 км ясно +10.0 +1.1 54 +8 +9 1015.1 1014.5 +8.9 +13.9
СВ 1 16 км ясно +7.8 +1.1 63 +5 +6 1015.1 1014.5
СВ 1 16 км ясно +4.4 0.0 73 +2 +2 1015.2 1014.5
В 1 16 км ясно +3.3 -1.7 70 0 0 1015.3 1014.5
ЮВ 1 16 км ясно +5.0 -2.2 60 +2 +2 1015.6 1014.8
В 1 16 км ясно +3.9 -1.7 67 +1 +1 1015.6 1014.8
В 1 16 км ясно +2.8 -2.2 70 0 0 1015.5 1014.8 +2.2 +10.0
В 1 16 км ясно +1.1 -2.2 79 -2 -2 1015.5 1014.8
В 1 16 км ясно +0.6 -2.8 78 -3 -3 1015.2 1014.5
В 2 16 км ясно +1.7 -2.8 72 -3 -3 1014.9 1014.2
В 2 16 км ясно +2.2 -1.7 75 -3 -2 1014.8 1013.8
СВ 2 16 км ясно +3.9 -1.1 70 0 +1 1014.6 1013.8
В 2 16 км ясно +5.6 -0.6 64 +2 +4 1014.3 1013.5 +0.6 +5.6
СВ 2 16 км ясно +7.8 0.0 58 +4 +7 1014.1 1013.5
В 2 16 км ясно +8.3 +0.6 58 +6 +10 1014.0 1013.1
В 2 16 км ясно +10.0 +0.6 52 +8 +13 1013.6 1012.8
В 2 16 км 8/0 2850 м
[Ac]
+11.7 +0.6 46 +10 +12 1013.3 1012.5
СВ 2 16 км ясно +13.9 +1.7 44 +13 +20 1012.8 1012.1
В 1 16 км ясно +16.7 +0.6 34 +17 +28 1012.4 1011.5 +5.6 +16.7
Местоположение метеостанции Selawik Airport: широта 66.6167 долгота -160.0000 высота над уровнем моря 8 м.
В архиве по умолчанию представлена погода в Велавике за последние 1-2 суток. Обновление информации о фактической погоде в базе происходит ежечасно! Архивные данные за месяц целиком и за предыдущие месяцы Вы можете получить, выбрав интересующий диапазон дат из раскрывающегося списка и нажав кнопку "Ввод!".
Внимание! Архив погоды МЕТАР в базе сайта по станциям, не включенным в климатический монитор, хранится не более 60 дней. Нет смысла пытаться выбрать более раннюю дату.
*Определитесь, кто Вы:
Внимание! Время в таблицах - местное (без учета летнего времени). Для получения всемирного времени необходимо вычесть поправку, которая равна -9 ч.
Смотрите также архив погоды в соседних городах и на ближайших метеорологических станциях:
Партнеры нашего сайта:      
Пояснения к столбцам:
  • Ветер - указаны скорость ветра в м/с - средняя за 10 мин, порывы в срок и между сроками (в фигурных скобках) и направление, откуда дует ветер: С - северный,
  • СВ - северо-восточный, В - восточный, ЮВ - юго-восточный, Ю - южный, ЮЗ - юго-западный, З - западный, СЗ - северо-западный.
  • Видимость - горизонтальная дальность видимости в метрах или километрах. При видимости от 1 до 10 км при отсутствии осадков обычно наблюдается дымка, при ухудшении видимости до 1 км и менее - туман. В сухую погоду видимость может ухудшаться дымом, пылью или мглою.
  • Явления - указаны атмосферные явления, наблюдавшиеся в срок или в последний час перед сроком; фигурными скобками обозначены явления, наблюдавшиеся между сроками (за 1-3 часа до срока); квадратными скобками обозначены град или гололедные отложения с указанием их диаметра в мм.
  • Облачность - указаны через наклонную черту общая и нижняя облачность в баллах и высота нижней границы облаков в метрах; квадратными скобками обозначены формы облаков: Ci - перистые, Cs - перисто-слоистые, Cc - перисто-кучевые, Ac - высококучевые, As - высокослоистые, Sc - слоисто-кучевые, Ns - слоисто-дождевые, Cu - кучевые, Cb - кучево-дождевые. Подробнее классификацию облаков см. в Атласе облаков (PDF).
  • T - Температура воздуха - температура, измеренная на высоте 2 м над землей.
  • Td - Температура точки росы - температура, при понижении до которой содержащийся в воздухе водяной пар достигнет насыщения.
  • f - Относительная влажность воздуха - влажноcть воздуха, измеренная на высоте 2 м над землей.
  • Te - Эффективная температура - температура, которую ощущает одетый по сезону человек в тени. Характеристика душности погоды. При расчете учитывается влияние влажности воздуха и скорости ветра на теплоощущения человека.
  • Tes - Эффективная температура на солнце - температура, которую ощущает человек, с поправкой на солнечный нагрев. Характеристика знойности погоды. Зависит от высоты солнца над горизонтом, облачности и скорости ветра. Ночью, в пасмурную погоду, а также при ветре 12 м/с и более поправка равна нулю.
  • P - Атмосферное давление - приведенное к уровню моря атмосферное давление.
  • Po - Атмосферное давление - измеренное на уровне метеостанции атмосферное давление.
  • Tmin - Минимальная температура - минимум температуры воздуха на высоте 2 м над землей.
  • Tmax - Максимальная температура - максимум температуры воздуха на высоте 2 м над землей.
  • R - Количество осадков - Количество выпавших осадков за период времени, мм. При наведении курсора мыши на число - период времени, за который выпало указанное количество осадков.
  • R24 - Количество осадков - Количество выпавших осадков за 24 часа, мм.
  • S - Снежный покров - Высота снежного покрова, см. При наведении курсора мыши на число - состояние снежного покрова и степень покрытия местности в баллах.